Regional Weather Roundup
Issued by NWS

Home | Current Version | Previous Version | Graphics & Text | Print | Product List | Glossary On
Versions: 1 2 3 4 5 6 7 8 9 10 11 12 13 14 15 16 17 18 19 20 21 22 23 24 25 26 27 28 29 30 31 32 33 34 35 36 37 38 39 40 41 42 43 44 45 46 47 48 49 50
000
ASUS43 KLSX 240157
RWRMO

WEATHER SUMMARY FOR MISSOURI
NATIONAL WEATHER SERVICE SPRINGFIELD MO
800 PM CST THU FEB 23 2017

NOTE: "FAIR" INDICATES FEW OR NO CLOUDS BELOW 12,000 FEET WITH NO
       SIGNIFICANT WEATHER AND/OR OBSTRUCTIONS TO VISIBILITY.
       CURRENT SKY AND/OR WEATHER CONDITIONS ARE NOT AVAILABLE FOR
       CHILLICOTHE AND FARMINGTON.

MOZ001>031-035>038-043-044-053-054-240300-
...NORTHERN AND WESTERN MISSOURI...

CITY           SKY/WX    TMP DP  RH WIND       PRES   REMARKS
KANSAS CTY INT CLEAR     48  44  86 NE16      29.41F
ST JOSEPH      CLOUDY    48  45  89 NE14      29.44F
CHILLICOTHE      N/A     50  47  89 N8        29.49F

$$
MOZ066>068-077>081-088>096-101>105-240300-
...SOUTHWEST MISSOURI...

CITY           SKY/WX    TMP DP  RH WIND       PRES   REMARKS
SPRINGFIELD    PTCLDY    70  49  47 S14       29.45R
JOPLIN         PTCLDY    76  44  32 S22G31    29.40R
BRANSON        MOCLDY    68  50  52 S15G26    29.50S

$$
MOZ032>034-039>042-045>050-055>058-069>072-240300-
...CENTRAL MISSOURI...

CITY           SKY/WX    TMP DP  RH WIND       PRES   REMARKS
COLUMBIA       NOT AVBL
JEFFERSON CITY CLEAR     64  55  72 E13       29.45S
ROLLA          PTCLDY    65  55  70 MISG      29.47F
SEDALIA        MOCLDY    66  55  67 SE10      29.38F
WARRENSBURG    MOCLDY    52  46  82 N9        29.42R

$$
MOZ051-052-059>065-240300-
...EAST CENTRAL MISSOURI...

CITY           SKY/WX    TMP DP  RH WIND       PRES   REMARKS
ST LOUIS INTL  MOCLDY    67  55  65 SE10      29.54F

$$
MOZ072>076-082>087-097>100-106>115-240300-
...SOUTH CENTRAL AND SOUTHEAST MISSOURI...

CITY           SKY/WX    TMP DP  RH WIND       PRES   REMARKS
CAPE GIRARDEAU PTCLDY    66  53  63 S13G20    29.61S
POPLAR BLUFF   PTCLDY    67  56  67 S14       29.60R
WEST PLAINS    MOCLDY    66  57  72 S14G22    29.56S

$$



USA.gov is the U.S. government's official web portal to all federal, state and local government web resources and services.